Weather History for KCUB - April, 2013

Change the Weather History Date:

Saturday, April 13, 2013

  Actual Average Record
Temperature  
Mean Temperature 64 °F 64 °F  
Max Temperature 79 °F 76 °F 86 °F (2001)
Min Temperature 49 °F 52 °F 40 °F (2012)
Degree Days  
Heating Degree Days 1 4  
Month to date heating degree days 56 58  
Since 1 July heating degree days 2147 2261  
Cooling Degree Days 0 3  
Month to date cooling degree days 37 26  
Year to date cooling degree days 72 44  
Growing Degree Days 14 (Base 50)    
Moisture  
Dew Point 42 °F    
Average Humidity 46    
Maximum Humidity 83    
Minimum Humidity 19    
Precipitation  
Precipitation 0.00 in 0.08 in 0.17 in (2004)
Month to date precipitation 2.01 1.31  
Year to date precipitation 12.52 12.47  
Sea Level Pressure  
Sea Level Pressure 29.95 in    
Wind  
Wind Speed 2 mph (WNW)    
Max Wind Speed 12 mph    
Max Gust Speed 17 mph    
Visibility 10 miles    
Events      
T = Trace of Precipitation, MM = Missing Value Source: NWS Daily Summary

Daily Weather History Graph

Daily Weather History Graph

Search for Another Location

Airport or City:

Trip Planner

Search our weather history database for the weather conditions in past years. The results will help you decide how hot, cold, wet, or windy it might be!

Date:

Astronomy

Apr. 13, 2013 Rise Set
Actual Time 6:55 AM EDT 7:54 PM EDT
Civil Twilight 6:29 AM EDT 8:19 PM EDT
Nautical Twilight 5:59 AM EDT 8:50 PM EDT
Astronomical Twilight 5:28 AM EDT 9:21 PM EDT
Moon 8:53 AM EDT (4/13) 11:08 PM EDT (4/13)
Length of Visible Light 13h 49m
Length of Day
12h 58m
Waxing Crescent, 10% of the Moon is Illuminated
Apr 13
Waxing Crescent
Apr 18
First Quarter
Apr 25
Full
May 2
Last Quarter
May 9
New

Hourly Weather History & Observations

Time (EDT) Temp. Dew Point Humidity Pressure Visibility Wind Dir Wind Speed Gust Speed Precip Events Conditions
12:53 AM 64.9 °F 39.9 °F 40% 29.85 in 10.0 mi West 10.4 mph - N/A   Clear
1:53 AM 64.0 °F 39.9 °F 41% 29.86 in 10.0 mi WNW 8.1 mph - N/A   Clear
2:53 AM 62.1 °F 39.9 °F 44% 29.86 in 10.0 mi NW 8.1 mph - N/A   Clear
3:53 AM 60.1 °F 43.0 °F 53% 29.87 in 10.0 mi NW 4.6 mph - N/A   Clear
4:53 AM 57.9 °F 43.0 °F 58% 29.89 in 10.0 mi Calm Calm - N/A   Clear
5:53 AM 52.0 °F 45.0 °F 77% 29.91 in 10.0 mi Calm Calm - N/A   Clear
6:53 AM 50.0 °F 45.0 °F 83% 29.94 in 10.0 mi Calm Calm - N/A   Clear
7:53 AM 51.1 °F 46.0 °F 83% 29.97 in 10.0 mi Calm Calm - N/A   Clear
8:53 AM 59.0 °F 45.0 °F 60% 29.99 in 10.0 mi Calm Calm - N/A   Clear
9:53 AM 64.9 °F 42.1 °F 43% 30.00 in 10.0 mi Calm Calm - N/A   Clear
10:53 AM 68.0 °F 37.9 °F 33% 30.01 in 10.0 mi East 3.5 mph - N/A   Clear
11:53 AM 70.0 °F 39.0 °F 32% 30.01 in 10.0 mi Variable 3.5 mph - N/A   Clear
12:53 PM 73.0 °F 37.9 °F 28% 30.00 in 10.0 mi West 5.8 mph - N/A   Clear
1:53 PM 73.9 °F 37.9 °F 27% 29.98 in 10.0 mi Calm Calm - N/A   Clear
2:53 PM 75.9 °F 37.0 °F 24% 29.96 in 10.0 mi Variable 4.6 mph - N/A   Clear
3:53 PM 78.1 °F 37.0 °F 23% 29.95 in 10.0 mi Variable 6.9 mph - N/A   Clear
4:53 PM 78.1 °F 33.1 °F 19% 29.93 in 10.0 mi Calm Calm - N/A   Clear
5:53 PM 78.1 °F 36.0 °F 22% 29.94 in 10.0 mi Variable 4.6 mph - N/A   Clear
6:53 PM 77.0 °F 36.0 °F 23% 29.95 in 10.0 mi West 5.8 mph - N/A   Clear
7:53 PM 70.0 °F 44.1 °F 39% 29.96 in 10.0 mi Calm Calm - N/A   Clear
8:53 PM 64.0 °F 46.9 °F 54% 29.98 in 10.0 mi Calm Calm - N/A   Clear
9:53 PM 61.0 °F 48.0 °F 62% 30.01 in 10.0 mi Calm Calm - N/A   Clear
10:53 PM 59.0 °F 48.9 °F 69% 30.01 in 10.0 mi Calm Calm - N/A   Clear
11:53 PM 57.0 °F 48.9 °F 74% 30.03 in 10.0 mi Calm Calm - N/A   Clear